This demonstration page uses our WeatherBlox Daily Observations layout. Learn more.

Left ArrowRight Arrow

41.86663, -103.66717

Hourly Observations for August 27, 2020

Temp ( °F °C ) Dew Point ( °F °C ) Humidity (%) Winds ( mph kmh ) Pressure ( in mb ) Visibility ( mi km ) Precip ( " mm )
12:05 am 00:05 Mostly Cloudy with Nearby Thunderstorms 77 25 60 15.6 56 56 E 14 22 29.68 1005 10 16 N/A
12:20 am 00:20 Mostly Clear 77 25 64 17.8 64 64 ESE 12 19 29.69 1006 10 16 N/A
1:53 am 01:53 Clear 74 23.3 61 16.1 64 64 SE 8 13 29.75 1008 10 16 N/A
2:53 am 02:53 Clear 67 19.4 62 16.7 84 84 NE 3 6 29.74 1007 10 16 N/A
3:53 am 03:53 Clear 66 18.9 60 15.6 81 81 ENE 5 7 29.74 1007 10 16 N/A
4:53 am 04:53 Clear 65 18.3 61 16.1 87 87 NNE 7 11 29.72 1007 10 16 N/A
5:53 am 05:53 Clear 63 17.2 59 15 87 87 SE 3 6 29.73 1007 10 16 N/A
6:53 am 06:53 Sunny 63 17.2 59 15 87 87 N N/A 29.75 1007 9 14 N/A
7:53 am 07:53 Sunny 71 21.7 60 15.6 68 68 N N/A 29.76 1008 10 16 N/A
8:53 am 08:53 Sunny 76 24.4 62 16.7 62 62 NE 8 13 29.79 1009 8 13 N/A
9:53 am 09:53 Sunny 80 26.7 60 15.6 51 51 ENE 8 13 29.78 1009 10 16 N/A
10:53 am 10:53 Sunny 86 30 57 13.9 37 37 ESE 10 17 29.76 1008 10 16 N/A
11:53 am 11:53 Sunny 90 32.2 58 14.4 34 34 ESE 17 28 29.74 1007 10 16 N/A
12:53 pm 12:53 Sunny 93 33.9 56 13.3 29 29 E 16 26 29.71 1006 10 16 N/A
1:53 pm 13:53 Sunny 88 31.1 60 15.6 39 39 E 9 15 29.70 1006 10 16 N/A
2:53 pm 14:53 Sunny 93 33.9 59 15 32 32 ESE 15 24 29.66 1004 10 16 N/A
3:53 pm 15:53 Sunny 94 34.4 60 15.6 32 32 ESE 15 24 29.65 1004 10 16 N/A
4:53 pm 16:53 Sunny 91 32.8 59 15 34 34 ESE 10 17 29.65 1004 10 16 N/A
5:53 pm 17:53 Sunny 94 34.4 53 11.7 25 25 S 12 19 29.63 1004 10 16 N/A
6:53 pm 18:53 Sunny 87 30.6 49 9.4 27 27 undefined N/A 29.66 1004 10 16 N/A
7:53 pm 19:53 Clear 82 27.8 51 10.6 34 34 S 7 11 29.66 1004 10 16 N/A
8:53 pm 20:53 Clear 82 27.8 48 8.9 31 31 SE 7 11 29.66 1005 10 16 N/A
9:53 pm 21:53 Clear 72 22.2 52 11.1 50 50 E 6 9 29.67 1005 10 16 N/A
10:53 pm 22:53 Clear 71 21.7 53 11.7 53 53 ESE 7 11 29.66 1005 7 11 N/A
11:53 pm 23:53 Clear 71 21.7 54 12.2 55 55 E 10 17 29.65 1004 10 16 N/A

Powered by AerisWeather